ATLAS 5 CENTAUR DEB, 43960

Orbit data source: Space-Track

ATLAS 5 CENTAUR DEB, 43960 is space debris in HEO originally from a launch on Wed, 17 Sep 2014 UTC launched from the Air Force Eastern Test Range (AFETR). Debris objects in space refer to the collection of defunct objects orbiting the Earth. Examples of debris include non-operational satellites, rocket bodies, and fragments generated from explosions, collisions, or faulty payload assembly.

Loading next visibility...
Identifier
43960, 2014-055P
Orbit
HEO
Country
Flag of USUS
Related business
Flag of USUnited Launch Alliance/Lockheed Martin (US)
Manufacturer
Unknown
Mission
Spacecraft
Bus & Motor
Unknown
Mass
Unknown
Launch date (UTC)
2014-09-17 (12 years ago)
Launch vehicle
Unknown
Launch site
Air Force Eastern Test Range (AFETR)
Object type
Payload
Rocket body
Debris
Shape & HBR
Unknown shape, 1.1 m
Radar Cross Section
Medium (>0.1 m² and <1 m²)

Expand to show TLE details & history
Last TLE update: 2 days ago

TLE from 2 days ago
0 ATLAS 5 CENTAUR DEB
1 43960U 14055P   26246.32133779 -.00000132  00000-0  00000+0 0  9998
2 43960  20.2311 130.4515 5012905 186.6821 162.6836  1.81617524 53067
Epoch: 2026-09-03T07:42Z
TLE epoch observation values (Epoch: 2026-09-03T07:42:43.585Z)
Latitude
0.00002°
Longitude
32.34154°
Altitude
35,942.599 km
Speed
2.189 km/s
True Right ascension
08h 41m 56s
True Declination
0° 00' 00"
Sunlit
Object was in daylight at epoch
Visualization orbit readout
Latitude
Unknown
Longitude
Unknown
Altitude
Unknown
Speed
Unknown
Apparent Right ascension
Unknown
Apparent Declination
Unknown
Sunlit
N/A
Visualization observer readout
Local Sidereal Time
07:02:00
Azimuth
Unknown
Elevation
Unknown
Doppler factor
Unknown
Orbital elements
Apogee altitude
36,226.653 km
Perigee altitude
7,774.629 km
Semi-major axis
28,378.778 km
Eccentricity
0.50129
Inclination
20.2311°
RAAN
130.4515°
Arg. of periapsis
186.6821°
True anomaly
173.32191°
Mean anomaly
162.6836°
Eccentric anomaly
168.43952°
Mean motion
0.454 °/min
Orbital period
792.96 mins
BSTAR
0
Loading maneuver chart data...
Computing Atmospheric mass density...

Documentation

Showing up to 5 results
|